INTELSAT 901 (IS-901)

Last updated on Wed May 21 2025 00:02:41 GMT+0000 (Coordinated Universal Time)

1 26824U 01024A 25140.53358663 .00000065 00000+0 00000+0 0 9999 2 26824 0.2263 93.3057 0004394 356.0324 54.3613 0.98816217 19045

Satellite not in orbit

INTELSAT 901 (IS-901)